Torna al catalogo

STARLINK-4451

AttivoComunicazioniPO
NORAD 53492·PAYLOAD·🇺🇸 United States

Lanciato Aug 12, 2022 da Vandenberg Space Force Base

Loading…

Prossimi Passaggi (prossime 24 ore)

TLE

AggiornatoSource: CelesTrak SupGP

Epoca: Sep 14, 2026, 14:17 UTC

1 53492C 22099AD  26257.59562500  .00870690  00000+0  61374-3 0  2579
2 53492  97.5962  27.4335 0005584 323.8605  66.6694 16.15756119    16

Traccia STARLINK-4451 in tempo reale con AllMySat

Download on the App Store